Погода в Новом Саде

Россия / Республика Адыгея     44°54′20″N   38°54′25″E
темп.,
°C
ветер,
м/с
пор.,
м/с
влажн.,
%
обл.,
%
осадки,
мм/ч
давл.,
гПа
погр.,
м
14 мая, пт
пт1400:00+15вюв36865 0.0 1009104
03:00+15юв22820 0.0 100931
06:00+15юв23725 0.0 100938
09:00+22юв22476 0.0 1010190
12:00+28вюв11375 0.0 1011594
15:00+29всв22385 0.0 1010838
18:00+28юз125552 0.0 101040
21:00+19зсз48715 0.0 1011173
15 мая, сб
сб1500:00+17з22650 0.0 101242
03:00+15зсз34670 0.0 101384
06:00+15зсз25720 0.0 1014131
09:00+21зсз12515 0.0 1015433
12:00+25св12435 0.0 1014832
15:00+27св22435 0.0 10131086
18:00+25всв23595 0.0 1012607
21:00+21ссв24780 0.0 101288
16 мая, вс
вс1600:00+18ссв13865 0.4 101189
03:00+17с229344 1.2 101135
06:00+17ссз1194100 1.2 101061
09:00+21ссв1281100 1.3 1009361
12:00+26в4567100 0.0 1007870
15:00+28всв56623 0.0 10061163
18:00+27всв46700 0.0 1004667
21:00+23всв511889 0.0 1003335
17 мая, пн
пн1700:00+21в3590100 0.0 1003118
03:00+19ю2289100 0.0 100319
06:00+19зюз24868 0.0 100490
09:00+22ююз8156252 0.0 1006708
12:00+24юз71452100 0.0 10081033
15:00+23юз6955100 0.0 1008810
18:00+22ююз336360 0.0 1010423
21:00+17ююз4107543 0.0 1011307
18 мая, вт
вт1800:00+15ююз4118596 0.2 1011318
03:00+14ю149193 0.2 1012153
06:00+15юз3887100 0.0 1013378
09:00+18юз4776100 0.0 1014538
12:00+22зюз24585 0.1 10141014
15:00+25з45454 0.1 10132002
18:00+22юз46592 0.0 1014900
21:00+16юз35780 0.0 1015140